Regional Weather Roundup
Issued by NWS Little Rock, AR

Home | Current Version | Previous Version | Graphics & Text | Print | Product List | Glossary On
Versions: 1 2 3 4 5 6 7 8 9 10 11 12 13 14 15 16 17 18 19 20 21 22 23 24 25 26 27 28 29 30 31 32 33 34 35 36 37 38 39 40 41 42 43 44 45 46 47 48 49 50
000
ASUS44 KLZK 310205
RWRLZK

WEATHER ROUNDUP FOR ARKANSAS
NATIONAL WEATHER SERVICE LITTLE ROCK AR
900 PM CDT WED JUL 30 2014

NOTE: "FAIR" INDICATES FEW OR NO CLOUDS BELOW 12,000 FEET WITH NO
SIGNIFICANT WEATHER AND/OR OBSTRUCTIONS TO VISIBILITY.

ARZ001-003-010-029-310300-
NORTHWEST ARKANSAS

CITY           SKY/WX    TMP DP  RH WIND       PRES   REMARKS
FAYETTEVILLE   LGT RAIN  66  66 100 E3        30.07S
FORT SMITH     RAIN      70  68  93 E8        30.03R FOG
HARRISON       LGT RAIN  65  65 100 CALM      30.09S
BENTONVILLE    CLOUDY    66  63  88 SE8       30.08F
ROGERS         LGT RAIN  65  64  97 E9        30.09S FOG
SILOAM SPGS    CLOUDY    66  59  77 E7        30.07F
HIGHFILL       LGT RAIN  65  32  29 E6        30.07F
SPRINGDALE     LGT RAIN  66  64  94 E8        30.10S FOG
$$

ARZ004-005-016-310300-
NORTH CENTRAL ARKANSAS

CITY           SKY/WX    TMP DP  RH WIND       PRES   REMARKS
BATESVILLE     CLOUDY    68  66  94 SW5       30.07S
FLIPPIN        CLOUDY    68  66  94 CALM      30.08S
MTN HOME       LGT RAIN  67  67 100 CALM      30.07S
$$

ARZ040-041-310300-
WEST CENTRAL ARKANSAS

CITY           SKY/WX    TMP DP  RH WIND       PRES   REMARKS
MENA           CLOUDY    70  68  94 E8        30.04F
MOUNT IDA      LGT RAIN  66  64  93 CALM      30.04F
$$

ARZ009-017-025-026-028-310300-
NORTHEAST ARKANSAS

CITY           SKY/WX    TMP DP  RH WIND       PRES   REMARKS
JONESBORO      LGT RAIN  71  63  75 W5        30.06S
NEWPORT        LGT RAIN  71  67  87 SW3       30.08S
WALNUT RIDGE   CLOUDY    70  63  78 SW7       30.06S
BLYTHEVILLE    CLOUDY    76  62  62 CALM      30.06S
$$

ARZ022-023-033-042-044-310300-
CENTRAL ARKANSAS

CITY           SKY/WX    TMP DP  RH WIND       PRES   REMARKS
LITTLE ROCK    LGT RAIN  70  63  78 CALM      30.07F
N LITTLE ROCK  CLOUDY    67  67  99 CALM      30.07F
JACKSONVILLE   LGT RAIN  68  65  89 NW2       30.07F
SEARCY         LGT RAIN  68  67  96 CALM      30.08F
HOT SPRINGS    CLOUDY    67  65  93 E5        30.07F
RUSSELLVILLE   LGT RAIN  69  67  93 E3        30.06F
CLINTON        LGT RAIN  70  70 100 CALM      30.07F
$$

ARZ036-310300-
EAST ARKANSAS

CITY           SKY/WX    TMP DP  RH WIND       PRES   REMARKS
WEST MEMPHIS   CLOUDY    74  67  78 NW3       30.05S
$$

ARZ050-053-066-070-073-310300-
SOUTHWEST ARKANSAS

CITY           SKY/WX    TMP DP  RH WIND       PRES   REMARKS
ARKADELPHIA    FAIR      71  70  97 CALM      30.06F
CAMDEN         LGT RAIN  70  66  88 NE6       30.05F
TEXARKANA      CLOUDY    70  68  93 E6        30.03S
EL DORADO      CLOUDY    71  70  96 NE7       30.04F
DE QUEEN       CLOUDY    70  68  93 E8        30.01S
$$

ARZ056-057-069-310300-
SOUTHEAST ARKANSAS

CITY           SKY/WX    TMP DP  RH WIND       PRES   REMARKS
PINE BLUFF     CLOUDY    70  67  90 N3        30.07S
STUTTGART      CLOUDY    70  64  83 NW6       30.08S
MONTICELLO     CLOUDY    70  67  90 CALM      30.06S

$$




USA.gov is the U.S. government's official web portal to all federal, state and local government web resources and services.